Satellite: HRBE Catalog number: 37855 Epoch time: 14345.30339670 Element set: 3 Inclination: 101.7077 deg RA of node: 101.2936 deg Eccentricity: 0.0207745 Arg of perigee: 261.5050 deg Mean anomaly: 096.2563 deg Mean motion: 14.93005174 rev/day Decay rate: 9.924e-05 rev/day^2 Epoch rev: 16907 Checksum: 288
Satellite: RS-39 Catalog number: 38051 Epoch time: 14288.65876392 Element set: 41 Inclination: 051.5964 deg RA of node: 324.1908 deg Eccentricity: 0.0006422 Arg of perigee: 269.6897 deg Mean anomaly: 186.8903 deg Mean motion: 16.43533377 rev/day Decay rate: 7.0201582e-01 rev/day^2 Epoch rev: 15308 Checksum: 345
Satellite: E-STAR Catalog number: 38079 Epoch time: 14345.73705891 Element set: 100 Inclination: 069.4256 deg RA of node: 229.7683 deg Eccentricity: 0.0173509 Arg of perigee: 091.4983 deg Mean anomaly: 270.6752 deg Mean motion: 15.64677100 rev/day Decay rate: 3.29964e-03 rev/day^2 Epoch rev: 15058 Checksum: 338
Satellite: GOLIAT Catalog number: 38085 Epoch time: 14345.39508220 Element set: 618 Inclination: 069.4329 deg RA of node: 243.7444 deg Eccentricity: 0.0221521 Arg of perigee: 098.4337 deg Mean anomaly: 018.5731 deg Mean motion: 15.49508929 rev/day Decay rate: 2.25593e-03 rev/day^2 Epoch rev: 15019 Checksum: 318
Satellite: HORYU-2 Catalog number: 38340 Epoch time: 14345.13214886 Element set: 42 Inclination: 098.2891 deg RA of node: 305.6246 deg Eccentricity: 0.0011668 Arg of perigee: 341.4287 deg Mean anomaly: 018.6493 deg Mean motion: 14.73348350 rev/day Decay rate: 2.309e-05 rev/day^2 Epoch rev: 13783 Checksum: 304
Satellite: RS-40 Catalog number: 38735 Epoch time: 14345.26375491 Element set: 849 Inclination: 082.4733 deg RA of node: 177.1400 deg Eccentricity: 0.0016519 Arg of perigee: 229.3265 deg Mean anomaly: 130.6380 deg Mean motion: 12.42564968 rev/day Decay rate: 4.0e-07 rev/day^2 Epoch rev: 10757 Checksum: 306
Satellite: PROITERES Catalog number: 38756 Epoch time: 14345.30073252 Element set: 487 Inclination: 098.2248 deg RA of node: 076.4924 deg Eccentricity: 0.0012402 Arg of perigee: 173.6550 deg Mean anomaly: 186.4816 deg Mean motion: 14.75367129 rev/day Decay rate: 1.636e-05 rev/day^2 Epoch rev: 12129 Checksum: 306
Satellite: BEESAT-3 Catalog number: 39134 Epoch time: 14344.91130049 Element set: 787 Inclination: 064.8753 deg RA of node: 298.2312 deg Eccentricity: 0.0035743 Arg of perigee: 279.3286 deg Mean anomaly: 080.3795 deg Mean motion: 15.08280716 rev/day Decay rate: 9.958e-05 rev/day^2 Epoch rev: 9026 Checksum: 334
Satellite: BEESAT-2 Catalog number: 39136 Epoch time: 14344.99772443 Element set: 767 Inclination: 064.8757 deg RA of node: 299.0964 deg Eccentricity: 0.0036255 Arg of perigee: 279.0690 deg Mean anomaly: 080.6329 deg Mean motion: 15.07259830 rev/day Decay rate: 8.240e-05 rev/day^2 Epoch rev: 9026 Checksum: 343
Satellite: LO-75 Catalog number: 39382 Epoch time: 14295.69194059 Element set: 487 Inclination: 040.4713 deg RA of node: 030.2705 deg Eccentricity: 0.0002289 Arg of perigee: 341.7175 deg Mean anomaly: 018.4586 deg Mean motion: 16.19795749 rev/day Decay rate: 7.301741e-02 rev/day^2 Epoch rev: 47082 Checksum: 345
Satellite: ZACUBE-1 Catalog number: 39417 Epoch time: 14344.41625503 Element set: 485 Inclination: 097.7559 deg RA of node: 048.8644 deg Eccentricity: 0.0061920 Arg of perigee: 032.2345 deg Mean anomaly: 328.2627 deg Mean motion: 14.78857810 rev/day Decay rate: 1.665e-05 rev/day^2 Epoch rev: 5673 Checksum: 324
Satellite: TRITON-1 Catalog number: 39427 Epoch time: 14344.46438870 Element set: 337 Inclination: 097.7430 deg RA of node: 041.1164 deg Eccentricity: 0.0117949 Arg of perigee: 049.8083 deg Mean anomaly: 311.3375 deg Mean motion: 14.65985805 rev/day Decay rate: 1.238e-05 rev/day^2 Epoch rev: 5621 Checksum: 316
Satellite: DELFIN3XT Catalog number: 39428 Epoch time: 14345.10049120 Element set: 341 Inclination: 097.7425 deg RA of node: 040.4296 deg Eccentricity: 0.0127430 Arg of perigee: 051.2542 deg Mean anomaly: 309.9969 deg Mean motion: 14.64279237 rev/day Decay rate: 1.921e-05 rev/day^2 Epoch rev: 5621 Checksum: 291
Satellite: GOMX-1 Catalog number: 39430 Epoch time: 14345.41452690 Element set: 63 Inclination: 097.7376 deg RA of node: 036.8853 deg Eccentricity: 0.0156264 Arg of perigee: 061.1057 deg Mean anomaly: 300.5715 deg Mean motion: 14.57414648 rev/day Decay rate: 2.043e-05 rev/day^2 Epoch rev: 5602 Checksum: 289
Satellite: MO-76 Catalog number: 39436 Epoch time: 14344.16820282 Element set: 430 Inclination: 097.7638 deg RA of node: 055.5058 deg Eccentricity: 0.0023361 Arg of perigee: 026.2785 deg Mean anomaly: 333.9616 deg Mean motion: 14.96459313 rev/day Decay rate: 1.7959e-04 rev/day^2 Epoch rev: 5712 Checksum: 333
Satellite: LO-74 Catalog number: 39440 Epoch time: 14345.25480387 Element set: 334 Inclination: 097.7513 deg RA of node: 046.5785 deg Eccentricity: 0.0083824 Arg of perigee: 035.6359 deg Mean anomaly: 325.0407 deg Mean motion: 14.73749248 rev/day Decay rate: 1.350e-05 rev/day^2 Epoch rev: 5665 Checksum: 328
Satellite: PUCPSAT-1 Catalog number: 39442 Epoch time: 14344.45947007 Element set: 333 Inclination: 097.7622 deg RA of node: 053.7543 deg Eccentricity: 0.0034363 Arg of perigee: 027.9792 deg Mean anomaly: 332.3262 deg Mean motion: 14.87234310 rev/day Decay rate: 3.376e-05 rev/day^2 Epoch rev: 5580 Checksum: 299
Satellite: SHINAISAT Catalog number: 39572 Epoch time: 14328.13084988 Element set: 447 Inclination: 064.9728 deg RA of node: 197.0096 deg Eccentricity: 0.0013534 Arg of perigee: 259.7861 deg Mean anomaly: 100.1802 deg Mean motion: 16.45181032 rev/day Decay rate: 2.8848087e-01 rev/day^2 Epoch rev: 4240 Checksum: 324
Satellite: TEIKYOSAT Catalog number: 39576 Epoch time: 14297.85867254 Element set: 437 Inclination: 064.9818 deg RA of node: 300.5833 deg Eccentricity: 0.0008491 Arg of perigee: 317.3597 deg Mean anomaly: 044.3862 deg Mean motion: 16.45008906 rev/day Decay rate: 9.345816e-02 rev/day^2 Epoch rev: 3769 Checksum: 359
Satellite: CO-77 Catalog number: 39577 Epoch time: 14244.78324653 Element set: 379 Inclination: 064.9920 deg RA of node: 123.7668 deg Eccentricity: 0.0014904 Arg of perigee: 269.7208 deg Mean anomaly: 091.1897 deg Mean motion: 16.43552757 rev/day Decay rate: 1.0543803e-01 rev/day^2 Epoch rev: 2938 Checksum: 363
Satellite: SPROUT Catalog number: 39770 Epoch time: 14345.40618120 Element set: 219 Inclination: 097.8747 deg RA of node: 079.9011 deg Eccentricity: 0.0011153 Arg of perigee: 094.1796 deg Mean anomaly: 266.0674 deg Mean motion: 14.83162560 rev/day Decay rate: 1.717e-05 rev/day^2 Epoch rev: 2979 Checksum: 311
Satellite: POPSAT-HIP1 Catalog number: 40028 Epoch time: 14345.32044476 Element set: 537 Inclination: 097.9707 deg RA of node: 240.2815 deg Eccentricity: 0.0016053 Arg of perigee: 076.2202 deg Mean anomaly: 284.0756 deg Mean motion: 14.85925378 rev/day Decay rate: 3.818e-05 rev/day^2 Epoch rev: 2587 Checksum: 307
Satellite: EO-80 Catalog number: 40032 Epoch time: 14345.28065571 Element set: 520 Inclination: 097.9670 deg RA of node: 240.0932 deg Eccentricity: 0.0013734 Arg of perigee: 073.0212 deg Mean anomaly: 287.2506 deg Mean motion: 14.85668765 rev/day Decay rate: 3.435e-05 rev/day^2 Epoch rev: 2587 Checksum: 298
Satellite: VELOX-1 Catalog number: 40057 Epoch time: 14345.33781544 Element set: 526 Inclination: 098.2376 deg RA of node: 055.3307 deg Eccentricity: 0.0012715 Arg of perigee: 118.0037 deg Mean anomaly: 242.2432 deg Mean motion: 14.74780395 rev/day Decay rate: 3.811e-05 rev/day^2 Epoch rev: 2418 Checksum: 280
Satellite: DAURIA DX 1 Catalog number: 40071 Epoch time: 14345.33301341 Element set: 497 Inclination: 098.3836 deg RA of node: 043.8483 deg Eccentricity: 0.0009706 Arg of perigee: 118.7686 deg Mean anomaly: 241.4492 deg Mean motion: 14.79888321 rev/day Decay rate: 1.757e-05 rev/day^2 Epoch rev: 2300 Checksum: 304
Satellite: UKUBE-1 Catalog number: 40074 Epoch time: 14345.36318282 Element set: 498 Inclination: 098.3845 deg RA of node: 044.1505 deg Eccentricity: 0.0005819 Arg of perigee: 125.2399 deg Mean anomaly: 234.9353 deg Mean motion: 14.81144949 rev/day Decay rate: 3.626e-05 rev/day^2 Epoch rev: 2302 Checksum: 304
Satellite: CHASQUI-1 Catalog number: 40117 Epoch time: 14345.35135934 Element set: 350 Inclination: 051.6399 deg RA of node: 293.7006 deg Eccentricity: 0.0010682 Arg of perigee: 090.6384 deg Mean anomaly: 044.7573 deg Mean motion: 15.76008452 rev/day Decay rate: 2.46076e-03 rev/day^2 Epoch rev: 1788 Checksum: 303
Satellite: HODOYOSHI-1 Catalog number: 40299 Epoch time: 14345.39629811 Element set: 112 Inclination: 097.4741 deg RA of node: 064.3654 deg Eccentricity: 0.0014986 Arg of perigee: 070.0264 deg Mean anomaly: 357.8036 deg Mean motion: 15.17389715 rev/day Decay rate: 6.660e-05 rev/day^2 Epoch rev: 531 Checksum: 307
Satellite: CHUBUSAT-1 Catalog number: 40300 Epoch time: 14345.37995497 Element set: 113 Inclination: 097.4723 deg RA of node: 064.2272 deg Eccentricity: 0.0024648 Arg of perigee: 067.8848 deg Mean anomaly: 002.3817 deg Mean motion: 15.15289920 rev/day Decay rate: 7.282e-05 rev/day^2 Epoch rev: 530 Checksum: 302
Satellite: QSAT-EOS Catalog number: 40301 Epoch time: 14345.71978652 Element set: 121 Inclination: 097.4686 deg RA of node: 064.4116 deg Eccentricity: 0.0036054 Arg of perigee: 065.0692 deg Mean anomaly: 094.5223 deg Mean motion: 15.12901661 rev/day Decay rate: 1.2724e-04 rev/day^2 Epoch rev: 535 Checksum: 276
Satellite: TSUBAME Catalog number: 40302 Epoch time: 14345.34729678 Element set: 112 Inclination: 097.4660 deg RA of node: 063.9118 deg Eccentricity: 0.0046242 Arg of perigee: 067.4716 deg Mean anomaly: 293.1382 deg Mean motion: 15.10501697 rev/day Decay rate: 9.467e-05 rev/day^2 Epoch rev: 528 Checksum: 297
/EX
participants (1)
-
Ray Hoad